Hourly Data Report for March 11, 2012

BAGOTVILLE A
QUEBEC

48°20'00.000" N
71°00'00.000" W
159.10 m
7060400
71727
YBG

Download Data

Hourly Data (March 2012)
Hourly Data Report for March 11, 2012
TIME
LST
Temp Definition
°C
Dew Point Definition
°C
Rel Hum Definition
%
Precip. Amount Definition
mm

Wind Dir Definition
10's deg

Wind Spd Definition
km/h
Visibility Definition
km
Stn Press Definition
kPa
Hmdx Definition


Wind Chill Definition


Weather Definition


00:00 -11.8 -16.1 70   10 19 24.1 100.76   -20 Mostly Cloudy
01:00 -11.4 -16.1 68   10 20 24.1 100.69   -20 Mostly Cloudy
02:00 -11.3 -14.4 78   10 22 24.1 100.60   -20 Mostly Cloudy
03:00 -10.5 -13.9 76   10 22 16.1 100.50   -19 Snow Showers
04:00 -10.3 -13.2 79   10 22 24.1 100.43   -19 Snow Showers
05:00 -10.2 -13.1 79   10 20 24.1 100.34   -18 Cloudy
06:00 -10.1 -13.0 79   10 22 24.1 100.32   -18 Cloudy
07:00 -9.3 -12.0 81   9 22 4.8 100.29   -17 Snow Showers
08:00 -8.8 -10.6 87   10 22 3.2 100.30   -17 Snow Showers
09:00 -8.3 -9.7 90   11 11 4.8 100.25   -14 Snow Showers
10:00 -7.5 -9.1 88   10 13 6.4 100.23   -13 Snow Showers
11:00 -6.6 -8.4 87   10 13 9.7 100.22   -12 Snow Showers
12:00 -5.7 -7.4 88   10 7 19.3 100.15   -9 Cloudy
13:00 -4.5 -6.9 83   9 11 40.2 100.10   -9 Mostly Cloudy
14:00 -2.6 -5.5 80   9 13 40.2 100.03   -7 Mainly Clear
15:00 -1.8 -4.0 85   9 13 32.2 100.00   -6 Mainly Clear
16:00 -1.2 -2.7 90   9 11 32.2 99.97   -5 Mainly Clear
17:00 -1.4 -5.9 71   9 13 32.2 99.95   -6 Mainly Clear
18:00 -2.3 -4.3 86   10 17 32.2 99.93   -8 Mainly Clear
19:00 -2.7 -5.7 80   10 13 24.1 99.93   -7 Mainly Clear
20:00 -4.6 -6.4 87   14 4 24.1 99.96   -6 Mainly Clear
21:00 -3.9 -5.9 86   10 7 24.1 99.97   -7 Mainly Clear
22:00 -6.0 -7.1 92     0 24.1 100.00     Clear
23:00 -8.6 -10.0 90   26 4 24.1 100.00   -11 Mainly Clear

Notes on Data Quality.

Legend

  • E = Estimated
  • M = Missing
  • NA = Not Available*
  • [empty] = Indicates an unobserved value
Date modified: